Location: Vancouver
(49.2500°N, 123.1330°W)
Time: 09:54:17
(UTC-07:00)

Oscar 11 - Visible Passes

Search period start: 30 April 2016 00:00
Search period end: 10 May 2016 00:00
Orbit: 614 x 628 km, 97.8° (Epoch: 29 April)

Date Brightness Start Highest point End Pass type
(mag) Time Alt. Az. Time Alt. Az. Time Alt. Az.
30 Apr 7.6 21:57:01 10° S 22:01:17 56° W 22:05:32 10° NNW visible
01 May 8.3 22:14:47 10° SSW 22:18:49 38° W 22:22:52 10° NNW visible
02 May 8.9 22:32:47 10° SSW 22:36:25 26° W 22:40:03 10° NW visible
03 May 7.3 21:13:22 10° SSE 21:17:35 54° ENE 21:21:48 10° N visible
03 May 9.5 22:51:05 10° SW 22:54:03 18° W 22:57:02 10° NW visible
04 May 7.0 21:30:43 10° SSE 21:35:01 80° ENE 21:39:21 10° NNW visible
04 May 9.7 23:09:58 10° WSW 23:11:44 12° W 23:13:30 10° WNW visible
05 May 7.3 21:48:12 10° S 21:52:30 69° WSW 21:56:49 10° NNW visible
06 May 8.0 22:05:53 10° S 22:10:01 46° W 22:14:11 10° NNW visible
07 May 8.7 22:23:46 10° SSW 22:27:35 31° W 22:31:26 10° NNW visible
08 May 9.2 22:41:53 10° SW 22:45:12 21° W 22:48:32 10° NW visible
09 May 7.1 21:22:00 10° SSE 21:26:16 66° ENE 21:30:33 10° N visible
09 May 9.6 23:00:25 10° WSW 23:02:52 15° W 23:05:19 10° NW visible
